SCP
0 0 0 0 -0 -0 -0 0 0 0 0 0 -0 -0 -0 -0 -0 0 -0 -0 -0 -0 -0 -0 -0 -0 -0 -0 -0 -0 -0 -0 -0 -0 -0 -0 -0 -0 0 0 0 0 0
0 0 0 -0 -0 -0 -0 0 0 0 0 0 0 -0 -0 -0 -0 -0 0 0 -0 -0 -0 -0 -0 -0 -0 -0 -0 -0 -0 -0 -0 -0 -0 -0 0 0 0 0 0 0 0
0 0 -0 -0 -0 -0 0 0 0 0 0 0 0 -0 -0 -0 -0 0 0 0 0 -0 -0 -0 -0 -0 -0 -0 -0 -0 -0 -0 -0 -0 0 0 0 0 0 0 0 0 0
-0 0 0 -0 -0 0 0 0 0 0 0 0 0 0 -0 -0 -0 0 0 0 0 0 0 -0 -0 -0 -0 -0 -0 -0 -0 -0 0 0 0 0 0 0 0 0 0 0 0
0 0 0 0 0 0 0 0 0 0 0 0 0 0 0 0 -0 0 0 0 0 0 0 -0 -0 -0 -0 0 0 0 0 0 0 0 0 0 0 0 0 0 0 0 0
0 0 0 0 0 0 0 0 0 0 0 0 0 0 0 0 0 0 0 0 0 0 0 0 0 0 -0 0 0 0 0 0 0 0 0 0 0 0 0 0 0 0 0
0 0 0 0 0 0 0 0 0 0 0 0 0 0 0 0 0 0 0 0 0 0 0 0 0 0 0 0 0 0 0 0 0 0 0 0 0 0 0 0 0 0 0
0 -0 0 0 0 0 0 0 0 0 0 0 0 0 0 0 0 0 0 0 0 0 0 0 0 0 0 0 0 0 0 0 0 0 0 0 0 0 0 0 0 0 0
0 1 1 0 1 1 0 0 0 0 0 0 0 0 0 0 0 0 0 0 0 0 0 0 0 0 0 0 0 0 0 0 0 0 0 0 0 0 0 0 0 0 0
2 3 2 1 1 1 1 0 0 0 0 0 0 0 0 0 0 0 0 0 0 0 0 0 0 0 0 0 0 0 0 0 0 0 0 0 0 0 0 0 0 0 0
3 5 4 4 2 2 1 0 0 0 0 0 0 0 0 0 0 0 0 0 0 0 0 0 0 0 0 0 0 0 0 0 0 0 0 0 0 0 0 0 0 0 0
5 4 5 6 4 3 2 1 0 0 0 0 0 0 0 0 0 0 0 0 0 0 0 0 0 0 0 0 0 0 0 0 0 0 0 0 0 0 0 0 0 0 0
5 5 6 7 6 4 3 1 0 0 0 0 0 0 0 0 0 0 0 0 0 0 0 0 0 0 0 0 0 0 0 0 0 0 0 0 0 0 0 0 0 0 0
2 5 8 8 7 5 4 2 1 0 0 0 0 0 0 0 0 0 0 0 0 0 0 0 0 0 0 0 0 0 0 0 0 0 0 0 0 0 0 0 0 0 0
1 2 5 9 8 7 5 2 1 1 0 0 0 0 0 0 0 0 0 0 0 0 0 0 0 0 0 0 0 0 0 0 0 0 0 0 0 0 0 0 0 0 0
1 0 4 7 9 6 4 2 1 1 0 0 0 0 0 0 0 0 0 0 0 0 0 0 0 0 0 0 0 0 0 0 0 0 0 0 0 0 0 0 0 0 0
2 2 2 1 4 6 6 4 2 1 0 0 0 0 0 0 0 0 0 0 0 0 0 0 0 0 0 0 0 0 0 0 0 0 0 0 0 0 0 0 0 0 0
2 3 3 3 3 4 6 5 2 1 0 0 0 0 0 0 0 0 0 0 0 0 0 0 0 0 0 0 0 0 0 0 0 0 0 0 -0 -0 0 0 0 0 0
0 1 1 2 3 3 6 5 3 1 0 0 0 0 0 0 0 0 0 0 0 0 0 0 0 0 0 0 0 0 0 0 0 0 0 0 0 0 0 0 0 0 0
0 0 0 1 1 1 2 5 4 3 1 0 0 0 0 0 0 0 0 0 0 0 0 0 0 0 0 0 0 0 0 0 0 0 0 0 0 0 0 0 0 0 0
0 0 0 0 0 1 2 3 4 3 2 1 0 0 0 0 0 0 0 0 0 0 0 0 0 0 0 0 0 0 0 0 0 0 0 0 0 0 0 0 0 0 0
0 0 0 0 0 1 1 1 1 4 3 1 1 0 0 0 0 0 0 0 0 0 0 0 0 0 0 0 0 0 0 0 0 0 0 0 0 0 0 0 0 0 0
0 0 0 0 0 0 0 1 0 1 3 2 1 0 0 0 0 0 0 0 0 0 0 0 0 0 0 0 0 0 0 0 0 0 0 0 0 0 0 0 0 0 0
0 0 0 0 0 0 0 0 0 0 1 2 1 0 0 0 0 0 0 0 0 0 0 0 0 0 0 0 0 0 0 0 0 0 0 0 0 0 0 0 0 0 0
0 0 0 0 0 0 0 0 0 0 0 1 1 0 0 0 0 0 0 0 0 0 0 0 0 0 0 0 0 0 0 0 0 0 0 0 0 0 0 0 0 0 0
0 0 0 0 0 0 0 0 0 0 0 1 1 0 0 0 0 0 0 0 0 0 0 0 0 0 0 0 0 0 0 0 0 0 0 0 0 0 0 0 0 0 0
Wind_Speed_500mb
23 22 16 19 18 19 10 6 20 20 15 14 13 15 12 13 13 15 21 21 25 27 30 32 27 28 30 31 30 29 28 25 21 17 16 16 15 15 11 10 11 11 11
33 26 11 18 20 14 7 12 17 13 18 20 17 3 2 6 7 10 15 12 17 24 26 28 30 29 29 30 31 32 29 24 23 22 23 24 22 21 21 19 17 15 12
25 35 26 24 24 18 17 19 18 19 15 23 14 16 8 3 8 9 9 5 13 16 19 26 27 28 26 34 30 28 27 28 24 22 22 22 26 27 27 26 28 29 21
26 16 23 22 29 36 31 26 21 24 21 16 10 25 14 11 14 13 8 5 8 14 15 17 20 19 26 30 30 33 31 27 26 23 22 23 23 25 27 27 24 24 24
32 34 30 41 34 31 42 38 30 25 28 24 18 22 26 19 12 15 14 7 5 10 10 10 14 14 20 23 21 35 32 30 24 21 21 20 22 23 22 24 25 27 27
32 46 38 33 31 26 31 33 35 39 37 32 27 34 38 29 17 16 16 11 15 13 8 6 6 4 14 17 17 25 28 30 25 20 18 17 21 20 22 23 23 25 26
42 36 49 47 43 35 35 36 44 43 43 43 37 48 41 36 33 25 21 18 23 21 14 11 5 11 10 10 10 17 21 33 22 16 13 14 16 17 19 21 22 23 25
54 55 49 56 55 46 41 42 49 52 50 48 49 51 40 37 39 34 28 28 29 24 21 19 13 16 16 16 9 15 21 25 21 11 9 13 12 15 16 18 20 21 23
62 60 55 59 61 56 50 50 43 53 60 63 55 49 27 26 43 47 40 36 38 32 27 27 22 23 22 21 15 16 20 18 15 4 5 8 6 8 11 13 14 17 19
63 63 62 63 65 67 59 50 46 56 57 71 68 65 55 32 30 32 50 42 37 37 36 34 32 31 27 27 20 20 23 20 15 6 2 2 3 6 10 12 17 23 26
78 76 80 77 76 74 66 64 60 59 64 63 79 74 69 37 29 42 44 56 52 42 41 36 41 36 37 35 29 25 25 22 10 4 3 1 6 7 10 14 19 22 23
76 87 92 93 91 86 80 76 71 69 61 67 72 78 79 74 62 52 39 43 61 59 51 45 42 45 44 34 34 30 24 22 11 6 3 1 3 5 9 12 16 19 22
83 92 96 102 100 91 86 82 87 82 74 69 74 80 83 80 79 70 53 46 57 63 55 54 51 50 41 41 38 32 29 21 12 10 5 3 1 5 7 12 14 18 21
90 98 94 107 115 105 95 87 100 96 94 80 69 83 85 81 77 76 69 57 56 64 69 68 59 56 55 47 42 39 33 23 15 11 7 4 1 3 7 11 14 17 20
98 91 96 98 109 113 107 105 100 109 109 95 89 76 97 85 78 81 75 73 71 65 74 73 67 64 59 52 50 45 38 28 21 15 11 6 2 3 7 9 14 17 18
69 78 96 92 92 104 110 115 117 112 120 114 96 91 103 102 82 86 76 76 71 69 73 82 85 78 68 60 53 45 34 27 23 19 12 8 4 4 4 7 14 18 14
66 71 78 86 99 102 102 107 122 120 120 121 121 107 97 103 97 88 87 85 81 79 73 78 85 79 71 64 57 44 35 31 28 24 16 8 5 2 6 9 12 22 22
51 60 70 76 90 102 98 107 114 115 113 122 125 122 108 108 112 93 95 97 89 82 74 75 76 82 74 66 58 43 36 33 31 31 19 11 5 1 8 14 19 25 28
56 63 66 71 80 87 100 115 112 111 115 118 124 129 124 115 112 102 107 101 92 92 86 76 73 82 76 69 64 54 43 37 40 33 21 17 15 8 7 15 25 25 26
65 63 65 68 70 79 87 100 115 115 113 117 124 128 123 128 122 112 114 117 99 97 94 84 80 83 81 76 68 58 52 47 47 35 31 22 19 14 14 19 30 26 28
77 80 78 76 72 71 76 88 102 111 117 118 123 122 124 120 127 112 113 120 116 102 103 91 87 81 88 84 81 67 55 46 46 35 30 30 22 16 21 21 25 24 33
79 82 83 85 78 74 71 73 86 107 115 123 126 120 117 115 114 112 111 115 119 115 113 101 95 92 93 89 78 68 57 53 47 50 39 32 22 23 19 20 24 28 27
70 72 84 80 80 81 76 72 72 82 108 114 124 121 121 117 109 109 109 110 119 113 121 117 106 104 103 99 84 69 68 60 48 42 40 43 28 30 22 24 22 27 24
75 74 77 83 78 76 75 77 78 76 80 111 130 131 131 118 102 107 109 111 119 118 119 117 102 99 94 91 78 65 60 49 36 46 42 43 25 27 20 18 21 24 29
74 77 77 82 85 86 78 74 73 80 81 83 126 136 144 124 109 101 108 118 120 118 118 112 100 97 78 81 73 67 70 64 52 49 46 33 32 21 20 13 14 20 26
70 73 84 88 93 92 78 77 70 68 75 85 93 135 132 131 122 104 105 120 124 127 125 111 98 87 67 78 80 67 77 71 64 53 51 43 36 27 22 20 21 14 18
Wind_Direction_500mb
197 229 246 182 156 128 120 121 140 126 108 133 107 93 65 22 24 33 48 52 56 51 55 44 44 48 47 48 49 50 48 46 47 52 58 57 55 48 24 2 359 9 9
191 190 188 171 159 139 106 187 162 148 159 177 158 67 56 62 53 36 26 53 56 47 47 44 46 39 42 39 39 41 44 45 46 45 51 54 52 43 41 35 32 23 8
202 176 178 165 156 160 177 185 198 155 198 196 208 203 220 244 292 325 340 5 48 51 47 37 40 39 40 31 33 35 36 39 43 43 52 47 46 51 55 53 49 52 37
204 187 209 179 184 199 190 201 185 173 195 220 226 169 225 237 265 295 275 299 39 34 37 37 21 30 30 26 31 26 31 37 40 47 56 54 53 54 56 56 49 35 30
217 208 216 193 210 205 201 202 196 185 202 214 210 179 207 223 239 262 256 278 323 346 13 15 18 10 20 24 29 22 18 23 28 36 39 45 54 55 47 45 46 46 44
238 218 208 218 231 214 206 203 194 197 203 209 207 198 194 207 245 257 237 255 290 286 304 331 342 360 356 1 17 14 11 11 13 20 36 43 48 49 50 52 51 49 42
237 239 212 212 227 223 218 204 205 203 200 209 201 192 195 205 215 226 246 253 269 267 268 285 287 292 310 317 335 356 4 0 1 20 44 51 52 47 47 42 37 30 23
237 238 230 223 227 228 225 220 212 212 208 203 203 189 181 190 199 214 232 241 251 254 249 253 256 273 276 290 285 323 344 348 355 22 51 52 47 43 30 26 21 17 14
238 241 238 225 234 233 232 233 229 221 217 207 215 212 193 216 210 207 213 230 242 242 234 238 242 239 245 265 271 306 326 334 349 18 59 60 46 32 27 23 23 14 9
239 239 235 237 235 240 234 234 244 230 223 217 214 224 227 228 190 187 202 223 227 236 232 228 236 238 235 251 270 289 304 326 329 333 354 86 61 33 35 18 19 18 15
234 238 240 238 240 241 238 235 238 240 233 228 222 219 223 213 199 186 188 209 222 233 227 227 228 239 233 257 267 274 290 305 303 263 235 339 49 31 17 14 15 15 15
243 239 240 242 244 246 242 236 236 244 245 237 230 225 225 218 215 212 224 210 213 219 223 227 220 223 233 242 246 260 277 290 290 258 251 303 46 25 7 13 9 9 1
241 241 240 239 242 247 249 240 238 241 243 240 234 232 227 229 229 235 224 216 208 214 212 223 217 223 231 234 243 249 272 281 263 241 216 191 22 14 5 1 357 353 348
247 249 250 246 243 245 247 247 239 238 242 240 237 232 233 231 230 236 233 226 209 211 213 211 208 222 226 237 247 251 270 266 247 227 207 197 297 350 350 346 349 348 346
252 251 254 256 250 246 248 248 244 239 241 240 238 239 230 236 237 240 241 233 229 200 203 204 199 214 227 232 243 251 262 255 233 206 199 207 201 302 327 346 358 352 351
271 264 252 255 256 253 250 248 247 245 241 242 239 237 231 230 235 239 231 226 226 221 200 204 209 217 224 229 237 246 250 240 221 196 196 194 209 305 331 0 1 4 360
273 268 261 258 263 262 254 251 249 250 246 245 244 238 239 233 232 230 225 226 223 229 222 217 218 218 221 225 228 236 242 236 220 200 202 190 228 289 346 335 3 360 359
270 274 272 266 260 262 264 256 254 255 256 250 248 242 239 235 231 229 222 225 223 224 220 224 215 216 215 222 228 231 236 227 224 207 212 223 253 265 359 332 334 349 354
276 276 274 275 271 261 259 261 260 256 253 254 253 250 241 238 234 227 223 222 220 224 224 220 217 211 210 214 217 224 228 224 211 204 218 228 244 272 305 298 300 326 348
290 280 279 278 278 271 263 259 261 258 256 257 253 253 247 241 239 229 225 223 220 222 223 221 222 215 209 211 219 222 219 217 219 211 203 224 245 252 268 278 283 306 334
295 294 294 286 283 278 270 261 259 258 257 257 252 249 249 246 244 237 231 225 223 220 220 217 218 211 208 208 212 219 217 212 213 216 216 218 242 243 281 259 283 292 320
299 304 306 298 291 287 280 273 264 257 253 246 244 251 250 248 246 243 235 229 226 216 217 212 213 215 215 215 213 217 204 189 195 201 211 227 243 242 251 273 281 301 307
295 303 308 304 298 294 289 284 279 267 250 243 245 243 241 244 242 242 237 227 225 223 223 221 218 221 218 217 211 206 194 193 199 204 212 224 239 230 246 271 275 306 303
295 301 302 303 299 297 294 294 287 284 270 250 244 237 238 242 238 238 229 220 222 221 219 224 230 230 225 224 213 203 200 199 200 216 218 214 206 226 237 264 282 292 309
294 296 298 302 304 300 298 301 297 289 280 267 242 242 232 234 237 232 229 220 218 218 218 223 227 230 226 224 201 185 186 194 201 196 199 222 217 217 246 247 260 280 300
290 292 296 300 299 297 297 299 301 297 284 274 261 245 239 234 235 227 227 219 214 215 211 211 215 214 228 208 192 192 198 195 202 207 217 213 215 221 235 248 261 283 323
Wind_Speed_850mb
23 22 16 19 18 19 10 6 20 20 15 14 13 15 12 13 13 15 21 21 25 27 30 32 27 28 30 31 30 29 28 25 21 17 16 16 15 15 11 10 11 11 11
33 26 11 18 20 14 7 12 17 13 18 20 17 3 2 6 7 10 15 12 17 24 26 28 30 29 29 30 31 32 29 24 23 22 23 24 22 21 21 19 17 15 12
25 35 26 24 24 18 17 19 18 19 15 23 14 16 8 3 8 9 9 5 13 16 19 26 27 28 26 34 30 28 27 28 24 22 22 22 26 27 27 26 28 29 21
26 16 23 22 29 36 31 26 21 24 21 16 10 25 14 11 14 13 8 5 8 14 15 17 20 19 26 30 30 33 31 27 26 23 22 23 23 25 27 27 24 24 24
32 34 30 41 34 31 42 38 30 25 28 24 18 22 26 19 12 15 14 7 5 10 10 10 14 14 20 23 21 35 32 30 24 21 21 20 22 23 22 24 25 27 27
32 46 38 33 31 26 31 33 35 39 37 32 27 34 38 29 17 16 16 11 15 13 8 6 6 4 14 17 17 25 28 30 25 20 18 17 21 20 22 23 23 25 26
42 36 49 47 43 35 35 36 44 43 43 43 37 48 41 36 33 25 21 18 23 21 14 11 5 11 10 10 10 17 21 33 22 16 13 14 16 17 19 21 22 23 25
54 55 49 56 55 46 41 42 49 52 50 48 49 51 40 37 39 34 28 28 29 24 21 19 13 16 16 16 9 15 21 25 21 11 9 13 12 15 16 18 20 21 23
62 60 55 59 61 56 50 50 43 53 60 63 55 49 27 26 43 47 40 36 38 32 27 27 22 23 22 21 15 16 20 18 15 4 5 8 6 8 11 13 14 17 19
63 63 62 63 65 67 59 50 46 56 57 71 68 65 55 32 30 32 50 42 37 37 36 34 32 31 27 27 20 20 23 20 15 6 2 2 3 6 10 12 17 23 26
78 76 80 77 76 74 66 64 60 59 64 63 79 74 69 37 29 42 44 56 52 42 41 36 41 36 37 35 29 25 25 22 10 4 3 1 6 7 10 14 19 22 23
76 87 92 93 91 86 80 76 71 69 61 67 72 78 79 74 62 52 39 43 61 59 51 45 42 45 44 34 34 30 24 22 11 6 3 1 3 5 9 12 16 19 22
83 92 96 102 100 91 86 82 87 82 74 69 74 80 83 80 79 70 53 46 57 63 55 54 51 50 41 41 38 32 29 21 12 10 5 3 1 5 7 12 14 18 21
90 98 94 107 115 105 95 87 100 96 94 80 69 83 85 81 77 76 69 57 56 64 69 68 59 56 55 47 42 39 33 23 15 11 7 4 1 3 7 11 14 17 20
98 91 96 98 109 113 107 105 100 109 109 95 89 76 97 85 78 81 75 73 71 65 74 73 67 64 59 52 50 45 38 28 21 15 11 6 2 3 7 9 14 17 18
69 78 96 92 92 104 110 115 117 112 120 114 96 91 103 102 82 86 76 76 71 69 73 82 85 78 68 60 53 45 34 27 23 19 12 8 4 4 4 7 14 18 14
66 71 78 86 99 102 102 107 122 120 120 121 121 107 97 103 97 88 87 85 81 79 73 78 85 79 71 64 57 44 35 31 28 24 16 8 5 2 6 9 12 22 22
51 60 70 76 90 102 98 107 114 115 113 122 125 122 108 108 112 93 95 97 89 82 74 75 76 82 74 66 58 43 36 33 31 31 19 11 5 1 8 14 19 25 28
56 63 66 71 80 87 100 115 112 111 115 118 124 129 124 115 112 102 107 101 92 92 86 76 73 82 76 69 64 54 43 37 40 33 21 17 15 8 7 15 25 25 26
65 63 65 68 70 79 87 100 115 115 113 117 124 128 123 128 122 112 114 117 99 97 94 84 80 83 81 76 68 58 52 47 47 35 31 22 19 14 14 19 30 26 28
77 80 78 76 72 71 76 88 102 111 117 118 123 122 124 120 127 112 113 120 116 102 103 91 87 81 88 84 81 67 55 46 46 35 30 30 22 16 21 21 25 24 33
79 82 83 85 78 74 71 73 86 107 115 123 126 120 117 115 114 112 111 115 119 115 113 101 95 92 93 89 78 68 57 53 47 50 39 32 22 23 19 20 24 28 27
70 72 84 80 80 81 76 72 72 82 108 114 124 121 121 117 109 109 109 110 119 113 121 117 106 104 103 99 84 69 68 60 48 42 40 43 28 30 22 24 22 27 24
75 74 77 83 78 76 75 77 78 76 80 111 130 131 131 118 102 107 109 111 119 118 119 117 102 99 94 91 78 65 60 49 36 46 42 43 25 27 20 18 21 24 29
74 77 77 82 85 86 78 74 73 80 81 83 126 136 144 124 109 101 108 118 120 118 118 112 100 97 78 81 73 67 70 64 52 49 46 33 32 21 20 13 14 20 26
70 73 84 88 93 92 78 77 70 68 75 85 93 135 132 131 122 104 105 120 124 127 125 111 98 87 67 78 80 67 77 71 64 53 51 43 36 27 22 20 21 14 18
Wind_Direction_850mb
197 229 246 182 156 128 120 121 140 126 108 133 107 93 65 22 24 33 48 52 56 51 55 44 44 48 47 48 49 50 48 46 47 52 58 57 55 48 24 2 359 9 9
191 190 188 171 159 139 106 187 162 148 159 177 158 67 56 62 53 36 26 53 56 47 47 44 46 39 42 39 39 41 44 45 46 45 51 54 52 43 41 35 32 23 8
202 176 178 165 156 160 177 185 198 155 198 196 208 203 220 244 292 325 340 5 48 51 47 37 40 39 40 31 33 35 36 39 43 43 52 47 46 51 55 53 49 52 37
204 187 209 179 184 199 190 201 185 173 195 220 226 169 225 237 265 295 275 299 39 34 37 37 21 30 30 26 31 26 31 37 40 47 56 54 53 54 56 56 49 35 30
217 208 216 193 210 205 201 202 196 185 202 214 210 179 207 223 239 262 256 278 323 346 13 15 18 10 20 24 29 22 18 23 28 36 39 45 54 55 47 45 46 46 44
238 218 208 218 231 214 206 203 194 197 203 209 207 198 194 207 245 257 237 255 290 286 304 331 342 360 356 1 17 14 11 11 13 20 36 43 48 49 50 52 51 49 42
237 239 212 212 227 223 218 204 205 203 200 209 201 192 195 205 215 226 246 253 269 267 268 285 287 292 310 317 335 356 4 0 1 20 44 51 52 47 47 42 37 30 23
237 238 230 223 227 228 225 220 212 212 208 203 203 189 181 190 199 214 232 241 251 254 249 253 256 273 276 290 285 323 344 348 355 22 51 52 47 43 30 26 21 17 14
238 241 238 225 234 233 232 233 229 221 217 207 215 212 193 216 210 207 213 230 242 242 234 238 242 239 245 265 271 306 326 334 349 18 59 60 46 32 27 23 23 14 9
239 239 235 237 235 240 234 234 244 230 223 217 214 224 227 228 190 187 202 223 227 236 232 228 236 238 235 251 270 289 304 326 329 333 354 86 61 33 35 18 19 18 15
234 238 240 238 240 241 238 235 238 240 233 228 222 219 223 213 199 186 188 209 222 233 227 227 228 239 233 257 267 274 290 305 303 263 235 339 49 31 17 14 15 15 15
243 239 240 242 244 246 242 236 236 244 245 237 230 225 225 218 215 212 224 210 213 219 223 227 220 223 233 242 246 260 277 290 290 258 251 303 46 25 7 13 9 9 1
241 241 240 239 242 247 249 240 238 241 243 240 234 232 227 229 229 235 224 216 208 214 212 223 217 223 231 234 243 249 272 281 263 241 216 191 22 14 5 1 357 353 348
247 249 250 246 243 245 247 247 239 238 242 240 237 232 233 231 230 236 233 226 209 211 213 211 208 222 226 237 247 251 270 266 247 227 207 197 297 350 350 346 349 348 346
252 251 254 256 250 246 248 248 244 239 241 240 238 239 230 236 237 240 241 233 229 200 203 204 199 214 227 232 243 251 262 255 233 206 199 207 201 302 327 346 358 352 351
271 264 252 255 256 253 250 248 247 245 241 242 239 237 231 230 235 239 231 226 226 221 200 204 209 217 224 229 237 246 250 240 221 196 196 194 209 305 331 0 1 4 360
273 268 261 258 263 262 254 251 249 250 246 245 244 238 239 233 232 230 225 226 223 229 222 217 218 218 221 225 228 236 242 236 220 200 202 190 228 289 346 335 3 360 359
270 274 272 266 260 262 264 256 254 255 256 250 248 242 239 235 231 229 222 225 223 224 220 224 215 216 215 222 228 231 236 227 224 207 212 223 253 265 359 332 334 349 354
276 276 274 275 271 261 259 261 260 256 253 254 253 250 241 238 234 227 223 222 220 224 224 220 217 211 210 214 217 224 228 224 211 204 218 228 244 272 305 298 300 326 348
290 280 279 278 278 271 263 259 261 258 256 257 253 253 247 241 239 229 225 223 220 222 223 221 222 215 209 211 219 222 219 217 219 211 203 224 245 252 268 278 283 306 334
295 294 294 286 283 278 270 261 259 258 257 257 252 249 249 246 244 237 231 225 223 220 220 217 218 211 208 208 212 219 217 212 213 216 216 218 242 243 281 259 283 292 320
299 304 306 298 291 287 280 273 264 257 253 246 244 251 250 248 246 243 235 229 226 216 217 212 213 215 215 215 213 217 204 189 195 201 211 227 243 242 251 273 281 301 307
295 303 308 304 298 294 289 284 279 267 250 243 245 243 241 244 242 242 237 227 225 223 223 221 218 221 218 217 211 206 194 193 199 204 212 224 239 230 246 271 275 306 303
295 301 302 303 299 297 294 294 287 284 270 250 244 237 238 242 238 238 229 220 222 221 219 224 230 230 225 224 213 203 200 199 200 216 218 214 206 226 237 264 282 292 309
294 296 298 302 304 300 298 301 297 289 280 267 242 242 232 234 237 232 229 220 218 218 218 223 227 230 226 224 201 185 186 194 201 196 199 222 217 217 246 247 260 280 300
290 292 296 300 299 297 297 299 301 297 284 274 261 245 239 234 235 227 227 219 214 215 211 211 215 214 228 208 192 192 198 195 202 207 217 213 215 221 235 248 261 283 323